GSAT0221 (GALILEO 25)

Last updated on Mon Sep 21 2026 00:02:49 GMT+0000 (Coordinated Universal Time)

1 43564U 18060A 26263.09151192 -.00000088 00000+0 00000+0 0 9999 2 43564 57.1307 339.2176 0004715 270.4507 89.5496 1.70476424 50786
UTC large
Height (km)
Speed (km/s)
/
Latitude / Longitude
Inclination (degrees)
Orbital Period (minutes)
Azimuth
Elevation
Range (km)
Doppler Factor

Next 0 passes for location: London (51.5072 / 0.1276)

No passes found over London.
GSAT0221 (GALILEO 25)